www.pogodaiklimat.ru

Погода и климат >> Архив погоды >> Пакистан >> Паттан


ПОГОДА в Паттане

  • Прогноз погоды в Паттане
  • Монитор погоды в Паттане

АРХИВ ПОГОДЫ в Паттане

Время (UTC), дата Ветер
(напр.,м/с)
 
Видим.   Явления Облачность Т
(С)
Тd
(С)
f
(%)
Тe
(С)
Тes
(С)
Комфортность P
(гПа)
Po
(гПа)
Тmin
(С)
Tmax
(С)
R
(мм)
R24
(мм)
S
(см)
18 10.09 0 н/о
00 11.09 штиль 0 10 км ясно +28.0 +17.4 53 +32 +32 душно 1003.3 921.2
03 11.09 штиль 0 10 км ясно +30.0 +18.0 49 +35 +40 очень
душно
1003.0 921.5 +25.0
06 11.09 штиль 0 10 км ясно +34.0 +19.5 43 +40 +59 опасность
солнечного
удара
1003.3 922.8
09 11.09 штиль 0 10 км ясно +36.0 +20.3 40 +42 +59 опасность
перегрева
999.5 919.8
12 11.09 10 км ясно +38.0 +17.3 30 995.4 916.5 +39.0
00 12.09 штиль 0 10 км ясно +27.0 +14.2 45 +29 +29 жарко 1002.1 919.9
03 12.09 штиль 0 10 км ясно +28.0 +17.4 53 +32 +37 душно 1004.9 922.7 +23.0
06 12.09 штиль 0 10 км ясно +33.0 +16.3 37 +36 +55 опасность
солнечного
удара
1004.0 923.2
09 12.09 СВ 3 10 км ясно +38.0 +19.3 34 +43 +53 опасность
перегрева
997.6 918.5
12 12.09 СВ 2 10 км 8/5 1200 м
[Sc As op]
+34.0 +13.0 28 +34 +35 очень
жарко
997.4 917.3 +39.0
00 13.09 штиль 0 4000 м ясно +25.5 +11.2 41 +27 +27 жарко 1004.1 921.3
03 13.09 штиль 0 10 км ясно +27.0 +16.1 51 +30 +35 душно 1006.9 924.3 +22.0
06 13.09 штиль 0 10 км ясно +34.0 +15.7 33 +36 +55 опасность
солнечного
удара
1003.3 922.8
09 13.09 СВ 3 10 км 8/5 1200 м
[Sc As op]
+35.0 +17.1 35 +38 +41 очень
душно
1001.9 921.7
12 13.09 СВ 4 10 км 10/5 1200 м
[Sc As op]
+30.0 +13.1 35 +31 +31 жарко 1002.8 921.3 +36.0
00 14.09 штиль 0 4000 м ясно +20.0 +13.3 65 +22 +22 комфорт 1008.7 924.0
03 14.09 штиль 0 10 км ясно +21.0 +12.6 59 +23 +28 комфорт 1009.4 925.0 +19.0
06 14.09 штиль 0 10 км ясно +30.0 +14.2 38 +32 +51 опасность
солнечного
удара
1005.0 923.3
09 14.09 штиль 0 10 км ясно +34.0 +17.6 38 +38 +54 опасность
солнечного
удара
1002.0 921.6
12 14.09 штиль 0 10 км ясно +36.0 +17.5 34 +39 +41 очень
душно
999.0 919.3 +37.0
00 15.09 СВ 4 2000 м 8/5 1200 м
[Sc As op]
+19.0 +12.2 65 +20 +20 1008.5 923.6
03 15.09 СВ 4 10 км 8/5 1200 м
[Sc As op]
+20.0 +11.4 58 +22 +22 комфорт 1008.7 924.0 +18.0
06 15.09 штиль 0 10 км ясно +30.5 +17.8 47 +35 +54 опасность
солнечного
удара
1006.0 924.4
09 15.09 СВ 4 10 км 8/5 1200 м
[Sc As op]
+35.0 +17.1 35 +38 +40 очень
душно
1000.6 920.5
12 15.09 штиль 0 10 км 10/5 1200 м
[Sc As op]
+20.0 +20.0 100 +23 +24 комфорт 1007.1 922.6 +35.5 33
18 15.09 0 н/о
21 15.09 0 н/о
00 16.09 штиль 0 2000 м ясно +20.0 +13.3 65 +22 +22 комфорт 1009.8 925.0
06 16.09 штиль 0 10 км ясно +29.0 +16.8 48 +33 +51 опасность
солнечного
удара
1006.3 924.2
12 16.09 СВ 3 10 км ясно +33.0 +16.3 37 +36 +37 очень
душно
999.0 918.6 +34.0
00 17.09 штиль 0 2000 м ясно +20.0 +14.3 70 +22 +22 комфорт 1008.4 923.8
03 17.09 штиль 0 10 км ясно +24.0 +14.3 55 +27 +31 жарко 1005.6 922.3 +19.0
06 17.09 штиль 0 10 км ясно +28.0 +15.5 47 +31 +49 душно 1005.1 922.9
09 17.09 СВ 5 10 км ясно +33.0 +16.3 37 +36 +42 очень
душно
1001.7 921.0
12 17.09 СВ 4 10 км ясно +34.0 +17.6 38 +38 +39 очень
душно
999.8 919.5 +35.0

 

Местоположение метеостанции Паттан (Пакистан): широта 35.10 долгота 73.00 высота над уровнем моря 752 м.

В архиве по умолчанию представлена погода в Паттане за последнюю неделю. Архивные данные за месяц целиком и за предыдущие месяцы, начиная с января 2011 года, Вы можете получить, выбрав интересующий диапазон дат из раскрывающегося списка и нажав кнопку "Ввод!".


*Определитесь, кто Вы:
робот инопланетянин человек

Внимание! Время в таблицах - всемирное. Для получения местного времени необходимо прибавить поправку, которая равна 5 ч.

Смотрите также архив погоды в соседних городах и на ближайших метеорологических станциях:

Погода в Малам Джабба (Пакистан) (40 км)
Погода в Сайду-Шарифе (Пакистан) (72 км)
Погода в Каламе (Пакистан) (81 км)
Погода в Балакоре (Пакистан) (86 км)
Погода в Бабусаре (Пакистан) (101 км)
Погода в Какуле (Пакистан) (105 км)
Погода в Дире (Пакистан) (105 км)
Погода в Чиласе (Пакистан) (106 км)
Погода в Тимергаре (Пакистан) (112 км)
Погода в Дроше (Пакистан) (122 км)

Пояснения к столбцам:

Ветер - указаны скорость ветра в м/с - средняя за 10 мин, порывы в срок и между сроками (в фигурных скобках) и направление, откуда дует ветер: С - северный, СВ - северо-восточный, В - восточный, ЮВ - юго-восточный, Ю - южный, ЮЗ - юго-западный, З - западный, СЗ - северо-западный.
Видимость - горизонтальная дальность видимости в метрах или километрах. При видимости от 1 до 10 км при отсутствии осадков обычно наблюдается дымка, при ухудшении видимости до 1 км и менее - туман. В сухую погоду видимость может ухудшаться дымом, пылью или мглою.
Явления - указаны атмосферные явления, наблюдавшиеся в срок или в последний час перед сроком; фигурными скобками обозначены явления, наблюдавшиеся между сроками (за 1-3 часа до срока); квадратными скобками обозначены град или гололедные отложения с указанием их диаметра в мм.
Облачность - указаны через наклонную черту общая и нижняя облачность в баллах и высота нижней границы облаков в метрах; квадратными скобками обозначены формы облаков: Ci - перистые, Cs - перисто-слоистые, Cc - перисто-кучевые, Ac - высококучевые, As - высокослоистые, Sc - слоисто-кучевые, Ns - слоисто-дождевые, Cu - кучевые, Cb - кучево-дождевые. Подробнее классификацию облаков см. в Атласе облаков (PDF).
T - Температура воздуха - температура, измеренная на высоте 2 м над землей.
Td - Температура точки росы - температура, при понижении до которой содержащийся в воздухе водяной пар достигнет насыщения.
f - Относительная влажность воздуха - влажноcть воздуха, измеренная на высоте 2 м над землей.
Te - Эффективная температура - температура, которую ощущает одетый по сезону человек в тени. Характеристика душности погоды. При расчете учитывается влияние влажности воздуха и скорости ветра на теплоощущения человека.
Tes - Эффективная температура на солнце - температура, которую ощущает человек, с поправкой на солнечный нагрев. Характеристика знойности погоды. Зависит от высоты солнца над горизонтом, облачности и скорости ветра. Ночью, в пасмурную погоду, а также при ветре 12 м/с и более поправка равна нулю.
P - Атмосферное давление - приведенное к уровню моря атмосферное давление.
Po - Атмосферное давление - измеренное на уровне метеостанции атмосферное давление.
Tmin - Минимальная температура - минимум температуры воздуха на высоте 2 м над землей.
Tmax - Максимальная температура - максимум температуры воздуха на высоте 2 м над землей.
R - Количество осадков - Количество выпавших осадков за период времени, мм. При наведении курсора мыши на число - период времени, за который выпало указанное количество осадков.
R24 - Количество осадков - Количество выпавших осадков за 24 часа, мм.
S - Снежный покров - Высота снежного покрова, см. При наведении курсора мыши на число - состояние снежного покрова и степень покрытия местности в баллах.